カタログに戻る

STARLINK-3230

運用中通信VLEO
NORAD 50845·PAYLOAD·🇺🇸 United States

打ち上げ Jan 6, 2022 から Cape Canaveral Space Force Station

Loading…

次のパス (今後24時間)

TLE

最新Source: CelesTrak SupGP

元期: Sep 15, 2026, 01:41 UTC

1 50845C 22001AU  26258.07062500 -.00016992  00000+0 -54631-3 0  2588
2 50845  53.1603  35.7737 0001154  76.9380 152.6947 15.31716964    16

AllMySatでSTARLINK-3230をリアルタイム追跡

Download on the App Store